Location: Bern�tre
(50.1974°N, 2.0915°E)
Time: 05:55:44
(UTC+00:00)

USA 234 - Pass Details

Date: 18 September 2020
Orbit: 1102 x 1106 km, 123.0° (Epoch: 16 October)

Event Time Altitude Azimuth Distance (km) Brightness Sun altitude
Exits shadow 20:19:21 - 59° (ENE) 3,153 5.4 -22.3°
Reaches altitude 10° 20:19:51 10° 60° (ENE) 2,968 5.3 -22.3°
Maximum altitude 20:26:21 63° 141° (SE) 1,219 3.2 -23.2°
Drops below altitude 10° 20:32:50 10° 223° (SW) 2,958 5.6 -24.1°
Sets 20:35:20 0° 226° (SW) 3,914 6.3 -24.4°
